Theta_e
320 321 322 321 321 321 321 322 322 322 323 322 322 322 321 322 322 321 321 321 321 321 321 322 322 322 323 323 323 323 324 325 326 327 327 327 328 328 328 328 328 328 328 329 331 331 330 331 331 329 327 327 328 327 327 327 328 328 330 330 331 332 332
320 319 320 320 320 321 322 322 322 322 322 321 320 320 320 320 320 321 320 319 319 319 319 319 319 320 322 322 322 322 322 322 323 324 325 325 325 326 326 327 326 326 327 328 330 329 328 328 330 331 330 328 328 326 325 327 329 329 331 330 330 330 330
319 318 319 320 321 322 322 322 322 321 321 320 319 318 317 317 317 317 317 316 316 315 315 316 316 317 318 319 320 321 321 321 321 321 322 322 322 322 322 323 323 324 325 326 327 327 326 326 327 328 329 330 331 327 325 326 328 328 330 331 330 329 330
319 318 320 320 320 322 322 321 321 320 319 319 319 317 317 316 316 316 315 315 315 314 315 315 315 316 316 317 318 318 319 319 320 320 320 320 320 320 320 320 320 320 321 322 323 323 322 323 323 323 323 325 327 326 325 325 326 328 328 329 330 329 329
319 319 320 320 320 321 321 321 321 320 319 318 318 317 318 317 316 316 316 315 315 315 315 315 315 315 316 316 317 317 317 317 318 318 318 318 319 319 318 318 318 318 319 319 319 320 320 319 320 319 318 317 319 321 323 324 325 325 324 325 325 326 328
319 319 321 321 320 320 321 320 321 320 320 318 317 317 318 318 316 316 316 316 315 315 315 315 315 315 315 315 315 316 316 316 316 316 316 316 316 316 316 316 315 316 317 316 316 317 317 317 317 316 317 317 317 317 318 318 318 319 319 320 320 321 324
320 319 320 320 320 319 320 320 320 320 320 319 318 318 318 317 317 317 316 316 315 315 315 315 315 315 315 314 315 316 316 316 316 316 316 316 315 315 315 315 314 314 315 315 315 315 315 316 317 316 317 316 315 315 314 314 315 316 318 320 320 320 320
320 319 319 320 319 319 319 320 319 319 320 320 319 318 317 318 319 318 317 316 315 315 315 314 314 315 315 314 314 315 315 315 315 315 315 315 315 315 314 314 315 314 313 313 313 314 314 314 315 315 316 315 315 315 315 315 315 315 316 318 319 319 319
321 320 318 319 320 319 319 320 319 319 320 320 319 318 317 318 319 318 316 316 315 315 315 314 314 314 314 314 314 314 314 314 315 315 315 315 314 314 313 313 315 314 312 312 313 313 313 313 313 314 314 315 315 315 315 315 315 315 316 317 317 318 319
323 322 319 318 320 320 319 320 319 319 320 320 321 319 317 318 319 318 317 317 316 316 315 315 314 314 314 314 315 315 314 314 314 314 314 314 314 314 312 312 313 314 311 311 313 312 312 313 313 313 314 314 314 314 315 315 315 315 316 315 316 316 316
325 324 322 320 322 322 320 319 319 319 320 320 321 320 318 319 319 318 318 317 317 316 316 315 314 314 314 314 314 315 314 314 314 313 313 313 313 312 312 311 312 312 311 311 313 313 312 313 313 312 313 313 314 314 314 314 314 315 315 315 315 315 316
325 324 323 322 323 323 321 319 318 319 320 320 322 321 319 319 319 318 318 318 317 317 316 315 314 314 314 314 313 313 314 314 314 313 312 312 313 312 312 311 311 311 310 310 312 313 312 312 312 311 311 312 313 314 314 314 314 314 314 315 315 315 315
324 323 323 323 323 324 322 320 319 319 320 320 321 322 319 319 319 318 318 318 318 317 316 315 315 314 314 314 313 313 313 313 313 313 312 311 311 312 312 312 311 311 310 309 311 311 310 311 312 311 310 311 312 312 313 314 314 314 313 314 314 314 314
324 323 323 323 324 324 323 321 319 320 321 321 322 322 320 319 319 319 318 318 318 317 317 316 315 315 315 315 314 314 313 311 312 312 312 311 310 310 310 310 310 311 311 310 310 310 309 311 311 311 311 311 311 311 312 312 313 313 313 313 313 314 314
325 324 324 324 325 325 323 321 320 320 320 321 321 322 320 319 319 319 318 318 317 317 316 316 315 315 315 314 314 314 312 311 311 311 311 311 310 310 310 310 310 310 310 309 309 309 309 309 309 309 310 310 310 310 310 310 311 312 311 311 312 312 312
323 323 323 322 323 324 323 321 322 322 321 321 321 321 320 319 319 319 319 318 318 317 316 316 316 315 314 315 314 313 312 311 311 312 311 310 310 310 310 310 310 310 309 309 309 309 309 309 309 309 309 309 309 310 310 310 311 311 311 311 310 311 311
323 323 323 321 322 323 323 321 321 321 321 320 320 320 320 319 319 320 319 319 318 318 317 316 316 315 314 314 314 313 312 312 312 312 311 310 309 309 309 309 309 309 309 308 309 308 308 308 309 308 308 308 308 308 309 310 310 311 311 311 311 310 310
324 324 323 321 320 321 322 321 321 321 321 321 320 320 320 319 320 320 320 319 319 319 318 317 316 315 314 314 314 313 312 311 311 311 310 310 309 308 308 309 308 308 307 308 308 308 308 308 308 307 307 307 306 307 307 308 308 309 310 310 310 310 310
324 325 323 322 321 321 322 323 323 322 322 321 320 319 320 319 319 319 320 320 319 319 318 318 317 316 315 314 314 313 312 311 311 310 310 309 308 308 307 307 307 307 307 307 307 307 307 307 307 307 307 307 307 307 307 308 308 308 308 308 309 309 309
322 323 324 323 322 322 322 323 324 323 322 321 320 319 319 320 320 319 320 320 319 319 319 318 317 316 315 314 314 312 311 311 310 309 309 308 307 307 306 306 306 305 305 306 306 307 307 307 307 306 306 307 307 307 307 307 307 307 307 308 308 308 308
313 316 319 320 321 323 324 324 323 322 321 321 321 320 320 321 321 320 320 320 319 319 319 318 317 316 315 314 313 312 311 311 310 309 308 306 306 305 304 304 304 304 304 304 303 302 301 301 301 302 303 303 304 304 305 305 306 306 307 307 307 307 308
310 312 315 317 318 320 322 323 323 322 321 320 321 321 321 321 321 321 321 320 319 319 319 318 318 316 315 314 313 312 312 310 310 309 307 305 305 304 303 304 303 303 303 300 296 294 294 294 295 297 299 300 302 303 303 304 305 305 306 306 306 306 307
312 313 315 316 317 318 319 320 322 322 322 321 321 322 321 322 322 321 321 320 319 319 319 318 317 316 314 313 313 312 311 309 308 307 306 305 305 304 303 303 303 302 301 298 296 295 294 294 294 295 296 297 298 300 301 302 303 303 304 304 305 305 306
311 312 313 314 316 317 318 319 320 320 322 322 322 322 322 322 322 321 320 319 319 319 318 317 316 315 313 312 312 311 309 308 306 306 305 305 304 304 303 303 302 302 301 300 300 299 297 296 296 297 297 296 296 296 297 299 300 301 302 303 303 304 304
308 309 310 311 314 315 317 318 319 319 319 320 321 322 321 321 321 320 320 319 318 318 317 316 315 313 311 310 310 308 308 306 305 304 304 304 303 303 303 302 302 302 301 301 301 299 298 299 300 299 299 298 297 297 296 296 297 298 299 300 301 302 303
307 308 308 309 311 313 315 317 318 318 318 319 320 321 321 321 320 320 319 318 317 316 315 314 313 311 310 309 307 306 306 305 304 304 304 303 303 302 302 301 301 301 301 300 300 299 300 301 301 300 299 299 298 298 298 298 297 297 298 298 299 300 301
308 308 308 308 309 310 312 314 316 317 317 317 319 320 321 321 320 320 318 317 317 316 313 311 311 309 308 307 305 304 304 304 303 302 303 302 302 301 301 301 301 300 300 300 300 300 301 300 300 299 299 299 299 299 300 300 299 298 298 298 298 299 299
308 308 308 308 309 309 310 312 314 316 316 316 316 318 319 320 320 319 318 317 317 313 310 310 309 308 306 305 302 302 303 303 301 301 301 301 301 301 301 301 300 300 300 300 300 300 299 298 298 298 297 298 298 299 299 300 300 299 299 299 298 299 299
308 308 307 308 308 309 309 311 313 315 316 315 316 316 317 318 319 318 317 317 315 310 308 308 307 305 303 301 298 299 301 302 301 301 301 301 301 301 300 300 300 300 300 300 299 298 297 297 296 296 297 297 298 298 299 299 299 299 299 299 298 299 299
308 308 308 307 308 308 309 310 312 313 315 315 315 315 315 316 317 317 316 316 312 307 306 306 304 301 299 297 296 299 301 301 301 301 301 301 301 301 301 301 301 300 300 300 299 298 297 296 296 296 296 297 297 298 298 298 299 298 298 298 297 297 297
308 308 308 307 307 308 308 309 310 313 314 314 314 314 314 315 316 315 316 314 309 305 304 301 299 298 297 296 297 299 301 301 301 301 301 301 301 301 301 300 300 299 299 299 298 297 297 296 295 295 296 296 297 297 297 297 298 298 298 298 297 297 297
308 308 308 308 308 308 309 309 310 312 313 313 313 313 313 314 314 313 312 309 306 305 302 298 295 296 296 296 297 299 300 300 300 300 301 300 300 300 300 300 299 298 298 298 297 297 296 295 295 295 296 296 295 296 296 296 296 297 297 297 297 297 297
308 309 309 309 310 310 310 310 310 312 312 312 312 312 313 313 311 308 307 305 303 303 300 296 294 296 295 295 296 298 298 298 298 299 300 299 299 299 299 299 298 297 297 296 296 295 294 294 293 294 294 295 295 295 295 294 294 294 294 294 294 295 295
308 309 309 310 310 311 311 311 312 312 312 311 312 312 311 311 308 305 304 302 300 299 297 295 294 295 294 294 295 296 296 297 298 298 298 297 297 297 297 297 297 297 296 296 295 294 293 293 292 291 292 293 293 293 292 292 292 292 292 292 292 292 293
308 309 309 309 310 311 311 312 312 312 311 311 312 311 309 307 305 303 301 300 298 296 295 295 294 294 294 294 294 294 295 296 296 295 295 295 295 296 296 296 296 296 296 295 294 293 293 292 291 290 290 290 290 290 290 290 290 290 290 291 291 291 292
308 309 309 309 310 310 311 311 311 311 311 311 311 309 307 305 303 301 300 299 298 296 295 295 295 295 294 294 294 294 294 294 293 292 293 294 295 295 295 296 297 297 296 295 294 293 292 291 290 290 290 290 290 290 289 289 290 290 290 290 291 291 291
307 308 308 309 309 309 310 310 311 311 310 310 309 307 305 304 302 301 300 299 299 298 297 296 296 295 295 294 294 293 292 292 292 292 293 294 295 296 296 297 296 296 295 293 292 291 290 291 291 291 291 291 290 290 290 290 290 290 290 291 291 291 291
Wind_Speed
9 9 8 8 7 6 6 5 5 5 4 5 5 5 5 4 4 4 3 3 3 3 3 4 5 6 7 9 9 7 5 5 4 4 5 5 4 2 1 2 3 4 5 5 4 2 2 3 2 4 6 6 8 8 10 14 12 12 19 15 10 10 12
10 10 9 8 8 7 7 5 5 5 5 4 5 5 5 5 5 5 4 4 5 5 5 6 6 7 7 7 7 7 6 6 6 5 3 3 3 2 0 1 3 5 5 3 3 3 2 2 2 2 4 6 8 8 8 12 11 9 12 13 14 12 7
11 10 9 9 8 7 7 6 5 5 4 4 5 5 5 6 5 5 5 5 5 6 6 7 6 6 7 7 7 6 6 6 6 7 6 4 3 3 3 3 2 3 4 2 2 3 2 2 3 3 4 5 5 6 8 10 11 10 11 12 15 14 10
12 11 10 10 9 8 8 7 6 5 5 5 5 5 5 5 5 5 5 5 5 6 6 6 6 6 6 6 6 6 7 7 7 7 6 5 4 3 4 4 4 4 4 4 3 4 4 3 4 4 5 6 6 7 9 10 9 9 11 13 16 15 12
13 12 11 11 10 9 9 8 7 6 6 6 5 5 4 4 4 4 4 5 5 5 5 5 6 6 6 6 6 6 7 7 7 6 6 6 5 4 5 5 4 4 3 4 5 5 5 5 6 5 6 7 7 7 6 6 8 10 12 13 15 15 13
14 13 12 12 11 10 10 9 8 8 7 7 6 6 5 5 4 4 4 4 4 4 5 5 5 6 6 6 7 7 7 7 7 7 6 6 6 5 5 4 4 4 4 4 4 4 4 5 5 5 7 8 7 8 9 9 10 12 12 12 12 12 12
15 14 13 13 12 11 10 10 9 8 8 8 8 7 7 6 5 4 4 4 5 5 5 5 5 5 5 5 6 7 7 6 6 6 6 6 6 5 5 4 4 4 4 4 4 4 4 4 5 5 6 7 7 8 10 10 10 9 8 8 7 8 9
14 14 13 13 13 12 11 11 10 9 9 9 9 9 9 7 6 6 5 5 5 5 5 5 5 5 5 5 5 6 6 6 5 5 5 5 5 5 5 4 3 3 4 4 4 4 4 5 5 5 5 5 6 6 6 7 8 7 7 6 5 6 6
14 14 14 13 14 13 12 11 10 9 9 10 10 10 10 9 7 7 6 6 6 5 5 5 5 5 4 4 5 5 5 4 5 4 4 5 5 5 6 5 4 4 5 5 5 5 5 5 5 5 5 5 5 5 4 5 6 5 6 6 6 5 4
14 14 14 13 14 14 13 12 12 11 11 11 12 12 12 11 10 9 8 7 7 6 6 6 5 5 5 4 4 4 4 4 4 4 3 4 4 4 5 5 5 4 5 5 5 5 5 5 5 5 5 6 6 5 4 4 5 6 7 8 8 7 5
15 14 13 13 13 14 14 14 13 13 12 12 13 14 14 13 12 11 10 9 9 8 7 7 6 6 6 5 5 5 4 4 3 3 3 2 3 3 3 4 4 4 5 5 4 5 5 5 5 5 5 6 6 6 6 5 5 7 9 8 9 9 8
16 15 13 12 12 13 14 14 14 14 14 14 15 15 15 15 14 13 12 11 11 10 9 8 8 7 7 6 6 5 5 5 4 3 3 2 2 1 1 2 2 2 4 5 4 4 4 5 5 5 6 6 6 6 7 7 6 7 9 9 9 10 11
15 15 15 13 13 13 12 13 14 15 16 16 16 17 17 16 16 15 15 13 13 12 11 10 10 9 8 7 7 6 6 5 5 4 3 2 2 1 1 1 1 2 3 5 4 4 5 5 4 5 6 6 6 6 7 8 7 8 11 11 12 12 12
14 15 15 14 14 14 13 13 15 15 16 17 18 19 18 18 18 17 16 15 15 14 13 13 12 11 10 9 8 7 7 6 6 5 4 3 3 2 1 2 2 2 3 4 5 6 6 5 6 7 6 6 6 6 7 8 9 9 11 11 11 12 12
13 14 14 14 13 13 13 14 15 16 16 17 18 19 19 19 19 19 18 17 16 16 15 15 14 13 12 11 10 9 8 7 7 6 5 4 4 3 2 2 2 2 3 4 5 6 7 6 7 8 7 7 7 7 7 9 9 10 11 11 12 13 12
12 13 14 15 14 14 16 16 16 15 16 16 17 19 20 20 20 20 19 19 18 17 17 16 15 14 13 12 12 10 9 9 8 7 6 5 5 4 3 3 3 3 3 4 5 6 7 7 7 8 8 8 9 9 9 9 10 11 12 12 12 12 12
10 10 11 12 12 13 17 19 18 17 16 17 18 18 19 20 20 20 20 20 19 19 18 17 17 15 14 14 13 12 11 10 9 8 7 6 4 4 4 4 3 3 4 5 6 6 6 6 7 8 9 9 10 10 9 9 10 11 12 13 12 12 13
8 8 10 13 14 14 16 18 18 18 18 18 19 19 20 20 21 21 21 20 20 19 19 18 18 17 16 15 14 13 12 11 10 8 7 6 5 4 4 4 4 3 4 5 5 6 6 7 8 9 10 11 11 11 10 10 11 12 13 14 14 14 14
6 7 10 14 16 17 18 19 18 17 17 18 19 20 21 21 22 21 21 20 20 19 19 18 18 17 16 16 15 14 12 11 10 9 8 6 5 5 4 4 4 4 4 5 5 6 6 7 8 9 10 11 12 12 12 12 12 13 14 15 15 15 15
4 5 6 10 13 16 19 20 17 15 15 16 18 21 24 23 23 22 22 21 20 20 19 19 19 18 17 17 16 15 14 12 11 9 8 7 6 6 5 5 5 4 4 4 4 4 5 7 8 9 10 11 12 13 13 13 14 14 14 15 15 15 15
5 6 7 8 11 15 17 16 15 15 17 19 20 23 24 23 22 22 22 22 21 21 20 20 20 20 18 18 17 16 15 13 12 11 9 8 8 7 6 6 5 5 4 4 5 6 7 7 8 9 10 11 12 13 14 14 14 15 15 15 15 15 15
6 7 8 9 11 13 14 13 14 15 20 23 24 23 22 21 21 21 21 21 21 22 21 21 22 22 19 18 18 16 15 13 12 11 10 9 9 8 7 6 6 7 8 8 9 9 9 9 10 10 10 11 12 13 14 15 15 15 15 15 15 15 15
6 7 9 10 11 11 11 11 12 14 18 21 21 20 20 20 20 20 21 22 22 22 21 20 22 23 21 19 17 16 14 13 12 11 10 9 9 8 8 7 7 10 11 11 10 8 8 9 10 11 11 11 12 13 14 15 15 15 16 16 16 15 15
6 8 9 9 9 10 10 10 11 12 14 15 16 17 18 19 19 19 20 21 20 19 20 20 22 24 24 20 17 15 14 13 12 11 10 9 9 8 8 7 7 9 10 9 7 7 10 11 10 10 11 12 13 15 16 16 16 16 16 17 17 16 16
8 8 9 9 9 9 10 10 11 11 12 13 14 15 16 17 17 17 17 18 17 16 18 20 23 27 27 23 18 14 12 12 12 10 10 9 8 7 7 6 6 7 8 9 8 9 12 12 10 10 12 14 15 17 17 17 18 18 17 18 18 18 17
9 9 9 9 9 9 9 10 11 11 11 12 12 13 14 14 16 16 14 16 17 16 16 19 24 28 27 24 21 14 10 11 11 9 9 9 7 7 6 6 7 7 8 10 10 9 9 9 9 10 13 15 17 18 18 17 18 19 20 20 20 20 19
9 9 10 10 10 11 11 11 11 10 11 12 11 12 13 13 15 16 15 17 18 18 18 21 24 28 26 24 21 15 9 9 9 8 8 8 7 7 7 7 8 7 8 8 9 8 7 7 9 10 13 15 17 19 19 19 20 21 23 24 24 23 20
9 9 10 10 11 12 12 12 12 11 11 12 12 12 13 14 15 15 16 17 18 18 20 21 25 27 25 21 19 14 9 8 8 7 7 8 8 8 8 8 8 9 9 9 10 10 9 9 10 11 13 16 17 18 19 19 20 21 23 25 26 25 22
9 10 11 11 12 12 12 13 13 12 12 12 12 11 12 13 14 14 15 15 15 18 21 23 26 26 22 19 17 13 9 8 7 7 7 8 8 8 9 9 9 9 9 10 12 13 13 13 12 13 15 17 17 18 18 19 20 22 24 25 26 27 26
10 10 11 12 13 13 13 13 13 12 13 12 13 12 11 12 14 15 16 14 14 18 22 25 26 24 20 17 14 10 8 8 7 7 8 8 8 8 9 9 10 10 10 12 15 16 16 16 14 14 16 17 17 18 18 18 19 21 23 25 27 28 30
10 11 12 13 14 13 14 14 13 12 13 13 14 13 11 12 12 13 14 15 17 21 26 27 25 21 18 15 12 9 7 7 7 7 7 7 7 8 9 11 12 13 13 15 17 17 17 17 15 14 17 17 18 19 19 18 19 20 21 24 26 27 28
11 12 12 13 14 14 14 14 14 13 13 13 13 12 11 12 10 8 11 15 18 23 28 27 23 18 15 13 11 7 4 4 4 4 5 7 8 8 9 11 14 15 15 16 17 16 17 17 15 14 16 18 20 21 19 19 20 20 21 22 23 24 24
12 12 13 13 13 14 14 14 14 14 12 13 13 11 10 10 8 10 12 15 19 25 28 26 21 17 14 12 10 6 2 1 3 5 5 7 8 8 9 11 12 11 10 13 15 16 16 17 15 15 16 18 20 21 20 20 21 22 23 22 22 23 23
14 13 13 13 13 13 14 14 14 14 13 14 13 8 6 9 12 14 15 17 20 24 25 22 19 17 13 11 9 7 3 2 4 5 6 8 10 10 11 10 9 8 8 10 13 13 15 17 18 19 19 20 23 24 25 25 25 25 25 25 24 24 24
15 14 13 13 13 14 14 14 14 13 12 12 9 6 8 12 16 17 16 18 21 22 20 17 16 15 12 10 8 6 5 5 7 7 8 10 10 11 12 11 10 9 9 10 13 16 19 22 22 22 22 23 25 25 25 25 24 24 24 23 22 23 22
16 15 14 13 13 14 13 14 14 13 10 9 9 9 11 14 17 17 15 15 17 18 15 13 12 11 10 8 7 6 5 7 9 8 8 10 11 12 12 12 12 12 13 16 20 23 24 23 21 19 19 19 20 21 21 22 22 22 22 22 22 23 22
17 15 14 13 13 14 14 15 15 11 8 9 12 13 14 16 17 16 14 13 13 13 12 10 9 8 7 6 5 6 6 6 8 8 8 10 11 11 12 13 15 17 20 23 24 23 21 19 17 17 17 17 19 20 20 21 21 20 21 21 21 22 22
Wind_Direction
143 134 132 129 123 120 119 116 107 103 93 84 80 79 83 80 75 73 61 53 50 55 65 61 43 28 28 29 31 33 36 51 71 99 124 136 127 129 176 187 217 230 224 234 255 267 285 288 298 313 308 297 299 297 290 293 290 300 314 302 260 236 211
144 143 144 138 133 131 130 127 120 112 98 88 86 85 87 86 82 78 73 62 52 49 56 64 56 47 45 39 36 35 33 38 39 43 76 105 105 93 6 266 251 245 236 227 237 252 262 278 275 278 298 298 305 309 290 291 290 282 299 295 282 284 252
151 154 151 143 144 143 139 137 131 124 112 101 97 93 88 87 86 81 80 73 61 56 61 67 66 60 58 53 47 43 39 42 41 38 41 46 47 32 5 329 304 294 293 280 238 262 284 286 276 259 258 249 262 287 281 280 286 281 281 274 270 281 275
157 159 155 152 156 153 150 151 148 141 130 121 115 106 96 91 87 82 83 81 74 69 68 70 70 70 69 63 59 53 44 43 45 45 42 38 34 26 13 357 1 1 339 340 342 336 340 318 309 301 279 266 253 256 253 252 263 271 271 265 259 259 257
164 165 162 163 166 163 162 161 158 154 146 142 139 129 121 110 100 94 89 85 82 76 75 76 75 74 75 72 67 62 56 51 47 46 45 36 27 26 23 11 7 12 360 358 0 351 340 326 319 311 298 299 293 285 272 241 243 257 257 255 254 248 242
173 173 171 170 173 173 170 167 168 166 160 158 158 154 150 142 130 123 111 100 93 87 84 82 81 80 79 80 78 73 70 65 59 57 57 46 33 27 21 16 10 12 15 7 357 346 337 328 315 304 305 311 310 303 299 282 268 265 252 247 251 249 248
181 181 181 178 178 179 175 172 175 172 169 172 171 169 167 165 159 151 141 130 121 115 110 101 97 91 83 82 81 77 74 71 69 68 66 61 52 41 27 23 21 17 16 9 354 343 338 330 321 321 319 314 307 295 289 284 280 276 261 251 250 249 257
189 188 188 183 182 184 180 177 179 179 177 177 177 175 174 175 173 166 159 152 146 141 134 128 120 112 102 96 90 84 79 73 71 68 62 62 55 45 37 25 21 29 21 9 0 353 347 341 331 325 318 308 303 294 291 295 295 295 296 295 287 271 266
195 195 195 190 186 186 184 181 183 185 182 179 178 176 177 180 178 174 172 168 163 158 152 147 141 135 126 119 113 106 101 90 82 75 62 56 45 36 34 18 11 30 22 2 0 3 354 343 333 318 307 303 306 308 309 310 305 303 310 315 307 300 303
201 202 202 198 190 187 187 186 186 187 185 182 179 177 180 182 181 181 182 179 176 173 168 165 160 155 149 142 138 130 123 119 106 95 81 65 51 34 30 20 11 21 16 2 356 356 350 338 329 318 308 304 305 308 308 309 312 309 314 320 313 310 316
206 209 209 206 197 191 190 189 190 190 189 186 182 180 182 184 185 186 186 186 186 184 180 178 174 169 168 162 156 152 147 143 134 120 106 89 72 47 35 25 14 12 4 355 344 339 338 331 324 315 309 304 299 300 303 305 307 304 307 311 304 305 313
208 212 215 214 208 203 201 197 194 192 190 189 186 184 186 187 188 189 190 192 191 189 188 185 182 181 181 176 171 172 167 161 159 148 135 123 110 75 45 22 5 5 353 337 324 321 320 316 316 312 305 299 293 292 294 292 292 295 302 307 303 304 308
213 217 219 220 219 217 216 212 207 198 192 193 190 188 190 192 193 193 193 195 193 192 192 189 188 189 188 187 186 183 176 176 178 167 160 157 150 171 248 284 317 330 335 328 316 311 307 295 297 303 299 293 288 283 280 278 278 285 293 297 297 297 298
217 222 223 222 222 223 225 229 225 212 199 197 194 192 194 195 196 198 198 197 197 196 195 192 191 193 193 193 192 185 179 185 190 180 175 182 177 183 253 269 267 269 298 315 312 305 299 288 282 283 279 275 276 275 272 273 276 282 287 289 291 292 293
221 227 227 225 224 222 226 236 239 229 215 207 201 197 198 199 199 200 201 202 202 201 199 198 195 194 196 194 189 185 185 192 194 186 186 197 197 196 226 260 266 264 280 295 298 297 299 297 293 290 286 284 284 282 279 279 281 284 286 289 290 290 290
231 235 237 236 234 227 226 233 240 239 230 222 215 207 204 203 202 202 203 204 205 205 203 201 198 198 199 194 189 188 190 193 192 190 195 204 205 206 217 242 259 262 275 289 291 293 298 296 294 295 295 290 286 284 282 279 279 281 284 287 288 288 290
241 246 247 248 251 245 238 237 239 240 239 236 231 222 216 211 207 206 206 206 207 206 205 203 201 201 200 197 194 192 191 192 194 195 199 204 208 215 226 239 251 254 269 286 290 293 296 296 297 300 298 294 289 285 283 279 276 277 282 285 286 286 289
256 257 253 253 259 259 254 248 240 233 233 235 236 233 228 221 216 212 210 210 210 208 206 205 202 201 201 199 196 194 193 192 194 197 199 204 217 226 229 235 245 251 263 275 284 292 298 302 302 301 300 299 297 296 295 289 284 282 283 285 286 287 286
268 263 257 257 257 255 251 248 240 230 229 232 235 238 238 231 225 220 215 214 215 212 212 213 208 201 200 199 194 193 194 192 193 197 198 204 213 217 223 237 244 248 257 269 278 287 293 298 298 297 298 298 298 299 297 292 288 285 283 283 285 287 285
292 287 278 271 267 257 248 245 243 241 244 244 239 240 242 237 230 224 220 219 218 216 216 219 217 208 199 195 193 191 191 191 193 195 197 203 205 204 216 231 236 244 254 263 273 284 294 296 294 292 293 294 295 296 294 291 289 286 284 283 283 284 284
303 312 305 289 276 265 256 253 255 256 258 257 249 242 241 240 234 228 225 223 221 220 218 218 221 217 202 191 189 188 187 188 192 194 195 200 200 200 210 218 228 241 237 236 253 270 279 284 287 289 291 292 292 292 290 290 289 286 284 282 281 282 284
288 290 284 273 265 265 265 265 260 250 246 248 249 245 243 242 238 231 229 229 225 222 217 216 221 219 204 188 185 186 186 187 189 190 191 194 195 198 206 212 219 221 224 247 269 272 269 271 275 277 281 287 291 291 290 289 288 287 286 285 285 285 284
263 262 263 262 262 267 272 270 260 245 237 240 245 246 246 245 240 237 239 239 233 224 216 216 220 213 197 187 185 182 181 184 186 186 188 191 194 199 205 211 221 228 244 272 285 277 277 283 280 275 274 278 282 285 287 288 287 287 287 287 287 287 286
262 262 265 269 271 272 272 270 266 257 247 243 244 246 247 245 244 246 247 244 235 220 210 215 217 205 191 184 182 178 177 180 182 185 189 192 198 205 210 213 223 239 257 273 276 280 291 294 290 286 285 285 283 281 280 280 280 283 284 284 284 284 283
279 276 275 276 277 277 274 272 269 265 256 247 245 248 248 245 248 251 244 234 227 214 209 214 210 197 188 182 176 172 175 179 180 187 194 196 202 208 212 218 226 240 250 251 257 276 286 287 288 289 290 292 290 286 281 274 271 272 275 279 280 278 278
286 285 284 284 284 283 278 273 269 267 263 254 247 247 246 243 247 248 234 222 221 215 211 210 203 194 190 185 177 172 178 184 183 192 198 195 202 212 220 232 238 243 250 253 260 267 271 280 292 294 293 290 285 283 281 273 267 266 267 270 273 273 273
290 291 291 290 290 285 281 277 271 265 263 257 246 242 242 239 242 241 231 224 222 212 204 201 198 195 193 191 187 184 186 186 183 192 199 198 209 222 229 239 245 250 255 259 262 262 264 281 293 295 294 287 280 279 278 273 268 267 264 261 262 266 270
291 293 293 292 290 285 281 278 272 264 260 257 250 244 241 240 240 238 235 229 214 199 197 198 198 198 196 193 190 185 179 177 182 198 209 210 219 228 236 243 248 255 260 262 261 258 263 277 288 293 293 288 283 280 276 271 267 264 261 259 258 261 266
290 291 290 289 286 283 280 275 269 264 260 256 253 248 244 244 241 234 232 224 199 188 195 197 197 196 191 184 180 178 176 178 191 209 216 220 229 237 243 245 249 255 259 265 268 268 271 276 281 289 293 291 287 281 277 274 269 263 261 260 259 260 265
287 288 290 289 284 282 280 275 269 263 257 253 250 246 244 246 241 232 226 212 189 186 189 189 188 185 178 173 168 169 178 186 201 218 223 230 240 246 249 247 249 257 264 270 275 277 277 276 278 287 292 292 290 286 283 281 277 271 269 267 266 265 266
285 286 287 286 284 282 278 275 270 261 255 253 250 246 243 243 240 233 219 198 187 187 183 179 178 174 168 165 158 162 188 200 211 228 234 241 251 257 260 256 253 259 266 271 274 274 274 273 277 286 291 292 291 289 288 287 284 281 279 276 276 274 271
280 282 282 282 281 280 275 273 269 260 256 255 251 246 243 237 222 197 187 184 187 188 179 171 170 167 163 161 153 157 200 213 224 249 260 265 267 268 270 271 273 272 269 266 265 267 270 273 277 283 287 290 290 288 289 289 287 286 287 286 284 282 278
276 277 278 278 277 275 272 269 265 258 254 255 255 250 239 220 176 150 166 176 180 181 173 166 167 171 169 165 159 159 175 246 279 279 279 280 281 281 281 284 287 284 268 255 254 259 266 272 278 282 283 284 285 286 289 290 288 289 292 292 288 284 281
274 275 276 277 275 273 269 265 261 255 249 249 249 238 200 170 149 145 155 159 164 170 168 165 170 175 174 172 175 185 194 248 282 282 284 286 286 287 287 287 288 285 275 264 262 269 279 284 288 288 282 278 279 280 282 285 286 286 285 284 282 279 277
270 272 273 274 273 271 268 263 259 254 249 241 224 182 162 163 156 148 142 143 152 161 167 170 174 178 181 183 192 205 213 236 258 273 286 288 286 285 286 288 285 281 281 284 287 292 296 296 295 291 285 282 283 283 282 283 283 281 279 277 276 275 273
263 264 266 269 270 268 265 261 257 249 238 222 194 167 159 159 153 143 135 139 147 153 161 169 172 177 185 193 209 231 240 247 259 271 280 284 286 287 287 286 282 277 280 288 293 297 300 298 296 294 291 290 291 291 287 283 279 276 274 272 271 271 270
260 259 262 265 266 264 263 262 256 239 206 187 185 176 162 153 149 143 139 141 144 148 156 163 167 177 192 206 229 248 257 268 279 287 288 287 289 291 291 289 285 284 289 294 298 303 306 304 301 299 296 296 295 291 286 281 277 274 271 270 269 269 268